Year,Month,Day,Hour,Minute,Value (Times are PST for temperature in C)
2017,07,18,00,00,16.20
2017,07,18,00,01,16.20
2017,07,18,00,02,16.20
2017,07,18,00,03,16.10
2017,07,18,00,04,16.10
2017,07,18,00,05,16.10
2017,07,18,00,06,16.10
2017,07,18,00,07,16.10
2017,07,18,00,08,16.10
2017,07,18,00,09,16.10
2017,07,18,00,10,16.10
2017,07,18,00,11,16.10
2017,07,18,00,12,16.10
2017,07,18,00,13,16.10
2017,07,18,00,14,16.10
2017,07,18,00,15,16.10
2017,07,18,00,16,16.10
2017,07,18,00,17,16.00
2017,07,18,00,18,16.00
2017,07,18,00,19,16.00
2017,07,18,00,20,16.00
2017,07,18,00,21,15.90
2017,07,18,00,22,15.90
2017,07,18,00,23,15.90
2017,07,18,00,24,15.80
2017,07,18,00,25,15.80
2017,07,18,00,26,15.80
2017,07,18,00,27,15.80
2017,07,18,00,28,15.80
2017,07,18,00,29,15.80
2017,07,18,00,30,15.80
2017,07,18,00,31,15.80
2017,07,18,00,32,15.70
2017,07,18,00,33,15.70
2017,07,18,00,34,15.70
2017,07,18,00,35,15.70
2017,07,18,00,36,15.70
2017,07,18,00,37,15.70
2017,07,18,00,38,15.60
2017,07,18,00,39,15.60
2017,07,18,00,40,15.60
2017,07,18,00,41,15.60
2017,07,18,00,42,15.50
2017,07,18,00,43,15.50
2017,07,18,00,44,15.40
2017,07,18,00,45,15.40
2017,07,18,00,46,15.40
2017,07,18,00,47,15.30
2017,07,18,00,48,15.30
2017,07,18,00,49,15.30
2017,07,18,00,50,15.20
2017,07,18,00,51,15.20
2017,07,18,00,52,15.20
2017,07,18,00,53,15.20
2017,07,18,00,54,15.10
2017,07,18,00,55,15.10
2017,07,18,00,56,15.10
2017,07,18,00,57,15.10
2017,07,18,00,58,15.10
2017,07,18,00,59,15.10
2017,07,18,01,00,15.10
2017,07,18,01,01,15.10
2017,07,18,01,02,15.10
2017,07,18,01,03,15.00
2017,07,18,01,04,15.00
2017,07,18,01,05,15.00
2017,07,18,01,06,15.00
2017,07,18,01,07,15.00
2017,07,18,01,08,15.00
2017,07,18,01,09,15.00
2017,07,18,01,10,15.00
2017,07,18,01,11,15.00
2017,07,18,01,12,15.00
2017,07,18,01,13,15.00
2017,07,18,01,14,14.90
2017,07,18,01,15,14.90
2017,07,18,01,16,14.90
2017,07,18,01,17,14.90
2017,07,18,01,18,14.90
2017,07,18,01,19,14.90
2017,07,18,01,20,14.90
2017,07,18,01,21,14.90
2017,07,18,01,22,14.90
2017,07,18,01,23,14.90
2017,07,18,01,24,14.90
2017,07,18,01,25,14.80
2017,07,18,01,26,14.80
2017,07,18,01,27,14.80
2017,07,18,01,28,14.80
2017,07,18,01,29,14.80
2017,07,18,01,30,14.80
2017,07,18,01,31,14.80
2017,07,18,01,32,14.80
2017,07,18,01,33,14.70
2017,07,18,01,34,14.70
2017,07,18,01,35,14.70
2017,07,18,01,36,14.60
2017,07,18,01,37,14.60
2017,07,18,01,38,14.60
2017,07,18,01,39,14.50
2017,07,18,01,40,14.50
2017,07,18,01,41,14.40
2017,07,18,01,42,14.40
2017,07,18,01,43,14.40
2017,07,18,01,44,14.30
2017,07,18,01,45,14.30
2017,07,18,01,46,14.30
2017,07,18,01,47,14.30
2017,07,18,01,48,14.30
2017,07,18,01,49,14.30
2017,07,18,01,50,14.20
2017,07,18,01,51,14.20
2017,07,18,01,52,14.20
2017,07,18,01,53,14.20
2017,07,18,01,54,14.20
2017,07,18,01,55,14.20
2017,07,18,01,56,14.20
2017,07,18,01,57,14.20
2017,07,18,01,58,14.20
2017,07,18,01,59,14.20
2017,07,18,02,00,14.20
2017,07,18,06,48,12.80
2017,07,18,06,49,12.80
2017,07,18,06,50,12.90
2017,07,18,06,51,12.90
2017,07,18,06,52,13.00
2017,07,18,06,53,13.00
2017,07,18,06,54,13.10
2017,07,18,06,55,13.20
2017,07,18,06,56,13.20
2017,07,18,06,57,13.30
2017,07,18,06,58,13.40
2017,07,18,06,59,13.40
2017,07,18,07,00,13.50
2017,07,18,07,01,13.50
2017,07,18,07,02,13.60
2017,07,18,07,03,13.70
2017,07,18,07,04,13.80
2017,07,18,07,05,13.90
2017,07,18,07,06,14.00
2017,07,18,07,07,14.10
2017,07,18,07,08,14.20
2017,07,18,07,09,14.30
2017,07,18,07,10,14.40
2017,07,18,07,11,14.50
2017,07,18,07,12,14.60
2017,07,18,07,13,14.60
2017,07,18,07,14,14.70
2017,07,18,07,15,14.80
2017,07,18,07,16,14.90
2017,07,18,07,17,14.90
2017,07,18,07,18,15.00
2017,07,18,07,19,15.10
2017,07,18,07,20,15.10
2017,07,18,07,21,15.20
2017,07,18,07,22,15.20
2017,07,18,07,23,15.30
2017,07,18,07,24,15.30
2017,07,18,07,25,15.30
2017,07,18,07,26,15.30
2017,07,18,07,27,15.30
2017,07,18,07,28,15.30
2017,07,18,07,29,15.30
2017,07,18,07,30,15.30
2017,07,18,07,31,15.20
2017,07,18,07,32,15.30
2017,07,18,07,33,15.30
2017,07,18,07,34,15.30
2017,07,18,07,35,15.30
2017,07,18,07,36,15.30
2017,07,18,07,37,15.30
2017,07,18,07,38,15.40
2017,07,18,07,39,15.40
2017,07,18,07,40,15.40
2017,07,18,07,41,15.40
2017,07,18,07,42,15.40
2017,07,18,07,43,15.50
2017,07,18,07,44,15.50
2017,07,18,07,45,15.60
2017,07,18,07,46,15.60
2017,07,18,07,47,15.70
2017,07,18,07,48,15.90
2017,07,18,07,49,16.10
2017,07,18,07,50,16.30
2017,07,18,07,51,16.40
2017,07,18,07,52,16.50
2017,07,18,07,53,16.50
2017,07,18,07,54,16.50
2017,07,18,07,55,16.50
2017,07,18,07,56,16.50
2017,07,18,07,57,16.50
2017,07,18,07,58,16.50
2017,07,18,07,59,16.70
2017,07,18,08,00,17.30
2017,07,18,08,01,17.40
2017,07,18,08,02,17.50
2017,07,18,08,03,17.60
2017,07,18,08,04,17.70
2017,07,18,08,05,17.80
2017,07,18,08,06,17.80
2017,07,18,08,07,17.90
2017,07,18,08,08,17.90
2017,07,18,08,09,18.00
2017,07,18,08,10,18.00
2017,07,18,08,11,18.10
2017,07,18,08,12,18.20
2017,07,18,08,13,18.20
2017,07,18,08,14,18.20
2017,07,18,08,15,18.20
2017,07,18,08,16,18.30
2017,07,18,08,17,18.30
2017,07,18,08,18,18.30
2017,07,18,08,19,18.30
2017,07,18,08,20,18.30
2017,07,18,08,21,18.30
2017,07,18,08,22,18.40
2017,07,18,08,23,18.40
2017,07,18,08,24,18.40
2017,07,18,08,25,18.50
2017,07,18,08,26,18.50
2017,07,18,08,27,18.60
2017,07,18,08,28,18.60
2017,07,18,08,29,18.50
2017,07,18,08,30,18.30
2017,07,18,08,31,18.10
2017,07,18,08,32,17.90
2017,07,18,08,33,17.70
2017,07,18,08,34,17.60
2017,07,18,08,35,17.40
2017,07,18,08,36,17.30
2017,07,18,08,37,17.20
2017,07,18,08,38,17.10
2017,07,18,08,39,16.90
2017,07,18,08,40,16.90
2017,07,18,08,41,16.80
2017,07,18,08,42,16.80
2017,07,18,08,43,16.80
2017,07,18,08,44,16.80
2017,07,18,08,45,16.80
2017,07,18,08,46,16.80
2017,07,18,08,47,16.80
2017,07,18,08,48,16.80
2017,07,18,08,49,16.90
2017,07,18,08,50,16.90
2017,07,18,08,51,16.90
2017,07,18,08,52,16.90
2017,07,18,08,53,16.90
2017,07,18,08,54,16.90
2017,07,18,08,55,16.90
2017,07,18,08,56,16.90
2017,07,18,08,57,16.80
2017,07,18,08,58,16.80
2017,07,18,08,59,16.80
2017,07,18,09,00,16.70
2017,07,18,09,01,16.70
2017,07,18,09,02,16.70
2017,07,18,09,03,16.70
2017,07,18,09,04,16.70
2017,07,18,09,05,16.70
2017,07,18,09,06,16.70
2017,07,18,09,07,16.80
2017,07,18,09,08,16.80
2017,07,18,09,09,16.80
2017,07,18,09,10,16.90
2017,07,18,09,11,17.00
2017,07,18,09,12,17.00
2017,07,18,09,13,17.10
2017,07,18,09,14,17.30
2017,07,18,09,15,17.30
2017,07,18,09,16,17.50
2017,07,18,09,17,17.50
2017,07,18,09,18,17.60
2017,07,18,09,19,17.60
2017,07,18,09,20,17.70
2017,07,18,09,21,17.70
2017,07,18,09,22,17.80
2017,07,18,09,23,17.90
2017,07,18,09,24,17.90
2017,07,18,09,25,17.90
2017,07,18,09,26,17.90
2017,07,18,09,27,17.90
2017,07,18,09,28,18.00
2017,07,18,09,29,18.00
2017,07,18,09,30,18.10
2017,07,18,09,31,18.10
2017,07,18,09,32,18.10
2017,07,18,09,33,18.20
2017,07,18,09,34,18.20
2017,07,18,09,35,18.30
2017,07,18,09,36,18.30
2017,07,18,09,37,18.40
2017,07,18,09,38,18.50
2017,07,18,09,39,18.40
2017,07,18,09,40,18.40
2017,07,18,09,41,18.40
2017,07,18,09,42,18.30
2017,07,18,09,43,18.30
2017,07,18,09,44,18.30
2017,07,18,09,45,18.30
2017,07,18,09,46,18.30
2017,07,18,09,47,18.30
2017,07,18,09,48,18.30
2017,07,18,09,49,18.30
2017,07,18,09,50,18.20
2017,07,18,09,51,18.20
2017,07,18,09,52,18.20
2017,07,18,09,53,18.30
2017,07,18,09,54,18.30
2017,07,18,09,55,18.30
2017,07,18,09,56,18.30
2017,07,18,09,57,18.40
2017,07,18,09,58,18.50
2017,07,18,09,59,18.60
2017,07,18,10,00,18.60
2017,07,18,10,01,18.60
2017,07,18,10,02,18.60
2017,07,18,10,03,18.50
2017,07,18,10,04,18.40
2017,07,18,10,05,18.40
2017,07,18,10,06,18.30
2017,07,18,10,07,18.30
2017,07,18,10,08,18.20
2017,07,18,10,09,18.30
2017,07,18,10,10,18.30
2017,07,18,10,11,18.30
2017,07,18,10,12,18.30
2017,07,18,10,13,18.30
2017,07,18,10,14,18.30
2017,07,18,10,15,18.30
2017,07,18,10,16,18.30
2017,07,18,10,17,18.40
2017,07,18,10,18,18.40
2017,07,18,10,19,18.40
2017,07,18,10,20,18.40
2017,07,18,10,21,18.50
2017,07,18,10,22,18.50
2017,07,18,10,23,18.40
2017,07,18,10,24,18.30
2017,07,18,10,25,18.30
2017,07,18,10,26,18.30
2017,07,18,10,27,18.30
2017,07,18,10,28,18.40
2017,07,18,10,29,18.40
2017,07,18,10,30,18.40
2017,07,18,10,31,18.40
2017,07,18,10,32,18.50
2017,07,18,10,33,18.50
2017,07,18,10,34,18.40
2017,07,18,10,35,18.40
2017,07,18,10,36,18.40
2017,07,18,10,37,18.40
2017,07,18,10,38,18.40
2017,07,18,10,39,18.50
2017,07,18,10,40,18.50
2017,07,18,10,41,18.50
2017,07,18,10,42,18.60
2017,07,18,10,43,18.60
2017,07,18,10,44,18.70
2017,07,18,10,45,18.70
2017,07,18,10,46,18.70
2017,07,18,10,47,18.80
2017,07,18,10,48,18.80
2017,07,18,10,49,18.80
2017,07,18,10,50,18.90
2017,07,18,10,51,18.80
2017,07,18,10,52,18.80
2017,07,18,10,53,18.80
2017,07,18,10,54,18.80
2017,07,18,10,55,18.80
2017,07,18,10,56,18.80
2017,07,18,10,57,18.80
2017,07,18,10,58,18.80
2017,07,18,10,59,18.80
2017,07,18,11,00,18.80
2017,07,18,11,01,18.90
2017,07,18,11,02,18.90
2017,07,18,11,03,18.90
2017,07,18,11,04,18.90
2017,07,18,11,05,18.90
2017,07,18,11,06,19.00
2017,07,18,11,07,19.00
2017,07,18,11,08,19.10
2017,07,18,11,09,19.10
2017,07,18,11,10,19.10
2017,07,18,11,11,19.00
2017,07,18,11,12,19.00
2017,07,18,11,13,18.90
2017,07,18,11,14,18.80
2017,07,18,11,15,18.80
2017,07,18,11,16,18.70
2017,07,18,11,17,18.80
2017,07,18,11,18,18.80
2017,07,18,11,19,18.90
2017,07,18,11,20,18.90
2017,07,18,11,21,18.90
2017,07,18,11,22,18.90
2017,07,18,11,23,19.00
2017,07,18,11,24,19.00
2017,07,18,11,25,19.10
2017,07,18,11,26,19.20
2017,07,18,11,27,19.20
2017,07,18,11,28,19.20
2017,07,18,11,29,19.20
2017,07,18,11,30,19.30
2017,07,18,11,31,19.30
2017,07,18,11,32,19.30
2017,07,18,11,33,19.40
2017,07,18,11,34,19.50
2017,07,18,11,35,19.50
2017,07,18,11,36,19.70
2017,07,18,11,37,19.80
2017,07,18,11,38,19.90
2017,07,18,11,39,19.90
2017,07,18,11,40,19.80
2017,07,18,11,41,19.80
2017,07,18,11,42,19.80
2017,07,18,11,43,19.80
2017,07,18,11,44,19.70
2017,07,18,11,45,19.70
2017,07,18,11,46,19.70
2017,07,18,11,47,19.70
2017,07,18,11,48,19.80
2017,07,18,11,49,19.80
2017,07,18,11,50,19.80
2017,07,18,11,51,19.80
2017,07,18,11,52,19.80
2017,07,18,11,53,19.80
2017,07,18,11,54,19.80
2017,07,18,11,55,19.80
2017,07,18,11,56,19.80
2017,07,18,11,57,19.80
2017,07,18,11,58,19.90
2017,07,18,11,59,19.90
2017,07,18,12,00,20.00
2017,07,18,12,01,20.10
2017,07,18,12,02,20.10
2017,07,18,12,03,20.10
2017,07,18,12,04,20.20
2017,07,18,12,05,20.30
2017,07,18,12,06,20.40
2017,07,18,12,07,20.40
2017,07,18,12,08,20.50
2017,07,18,12,09,20.60
2017,07,18,12,10,20.70
2017,07,18,12,11,20.70
2017,07,18,12,12,20.80
2017,07,18,12,13,20.80
2017,07,18,12,14,20.90
2017,07,18,12,15,21.00
2017,07,18,12,16,21.10
2017,07,18,12,17,21.00
2017,07,18,12,18,20.90
2017,07,18,12,19,20.80
2017,07,18,12,20,20.70
2017,07,18,12,21,20.70
2017,07,18,12,22,20.70
2017,07,18,12,23,20.80
2017,07,18,12,24,20.80
2017,07,18,12,25,20.70
2017,07,18,12,26,20.70
2017,07,18,12,27,20.70
2017,07,18,12,28,20.70
2017,07,18,12,29,20.70
2017,07,18,12,30,20.70
2017,07,18,12,31,20.70
2017,07,18,12,32,20.60
2017,07,18,12,33,20.70
2017,07,18,12,34,20.80
2017,07,18,12,35,20.80
2017,07,18,12,36,20.80
2017,07,18,12,37,20.90
2017,07,18,12,38,21.00
2017,07,18,12,39,21.10
2017,07,18,12,40,21.10
2017,07,18,12,41,21.10
2017,07,18,12,42,21.10
2017,07,18,12,43,21.10
2017,07,18,12,44,21.10
2017,07,18,12,45,21.20
2017,07,18,12,46,21.20
2017,07,18,12,47,21.10
2017,07,18,12,48,21.20
2017,07,18,12,49,21.30
2017,07,18,12,50,21.40
2017,07,18,12,51,21.40
2017,07,18,12,52,21.40
2017,07,18,12,53,21.40
2017,07,18,12,54,21.40
2017,07,18,12,55,21.20
2017,07,18,12,56,21.10
2017,07,18,12,57,21.00
2017,07,18,12,58,20.90
2017,07,18,12,59,20.80
2017,07,18,13,00,20.70
2017,07,18,13,01,20.60
2017,07,18,13,02,20.50
2017,07,18,13,03,20.50
2017,07,18,13,04,20.50
2017,07,18,13,05,20.50
2017,07,18,13,06,20.40
2017,07,18,13,07,20.40
2017,07,18,13,08,20.40
2017,07,18,13,09,20.50
2017,07,18,13,10,20.60
2017,07,18,13,11,20.70
2017,07,18,13,12,20.80
2017,07,18,13,13,20.80
2017,07,18,13,14,20.80
2017,07,18,13,15,20.90
2017,07,18,13,16,20.90
2017,07,18,13,17,20.90
2017,07,18,13,18,20.90
2017,07,18,13,19,20.90
2017,07,18,13,20,20.90
2017,07,18,13,21,20.90
2017,07,18,13,22,21.00
2017,07,18,13,23,21.00
2017,07,18,13,24,21.10
2017,07,18,13,25,21.20
2017,07,18,13,26,21.30
2017,07,18,13,27,21.30
2017,07,18,13,28,21.40
2017,07,18,13,29,21.40
2017,07,18,13,30,21.40
2017,07,18,13,31,21.50
2017,07,18,13,32,21.60
2017,07,18,13,33,21.60
2017,07,18,13,34,21.70
2017,07,18,13,35,21.60
2017,07,18,13,36,21.50
2017,07,18,13,37,21.30
2017,07,18,13,38,21.20
2017,07,18,13,39,21.20
2017,07,18,13,40,21.10
2017,07,18,13,41,21.00
2017,07,18,13,42,20.90
2017,07,18,13,43,20.80
2017,07,18,13,44,20.90
2017,07,18,13,45,21.00
2017,07,18,13,46,21.10
2017,07,18,13,47,21.30
2017,07,18,13,48,21.30
2017,07,18,13,49,21.30
2017,07,18,13,50,21.30
2017,07,18,13,51,21.30
2017,07,18,13,52,21.40
2017,07,18,13,53,21.40
2017,07,18,13,54,21.50
2017,07,18,13,55,21.40
2017,07,18,13,56,21.30
2017,07,18,13,57,21.20
2017,07,18,13,58,21.20
2017,07,18,13,59,21.20
2017,07,18,14,00,21.40
2017,07,18,14,01,21.50
2017,07,18,14,02,21.70
2017,07,18,14,03,21.80
2017,07,18,14,04,21.90
2017,07,18,14,05,22.00
2017,07,18,14,06,22.10
2017,07,18,14,07,22.00
2017,07,18,14,08,21.90
2017,07,18,14,09,21.80
2017,07,18,14,10,21.70
2017,07,18,14,11,21.70
2017,07,18,14,12,21.60
2017,07,18,14,13,21.60
2017,07,18,14,14,21.60
2017,07,18,14,15,21.70
2017,07,18,14,16,21.70
2017,07,18,14,17,21.60
2017,07,18,14,18,21.60
2017,07,18,14,19,21.60
2017,07,18,14,20,21.50
2017,07,18,14,21,21.50
2017,07,18,14,22,21.40
2017,07,18,14,23,21.40
2017,07,18,14,24,21.40
2017,07,18,14,25,21.60
2017,07,18,14,26,21.70
2017,07,18,14,27,21.80
2017,07,18,14,28,21.70
2017,07,18,14,29,21.70
2017,07,18,14,30,21.80
2017,07,18,14,31,21.80
2017,07,18,14,32,21.80
2017,07,18,14,33,21.80
2017,07,18,14,34,21.80
2017,07,18,14,35,21.80
2017,07,18,14,36,21.90
2017,07,18,14,37,21.80
2017,07,18,14,38,21.90
2017,07,18,14,39,21.90
2017,07,18,14,40,22.00
2017,07,18,14,41,22.10
2017,07,18,14,42,22.10
2017,07,18,14,43,22.10
2017,07,18,14,44,22.00
2017,07,18,14,45,21.90
2017,07,18,14,46,22.00
2017,07,18,14,47,22.00
2017,07,18,14,48,22.00
2017,07,18,14,49,21.90
2017,07,18,14,50,21.80
2017,07,18,14,51,21.90
2017,07,18,14,52,22.00
2017,07,18,14,53,21.90
2017,07,18,14,54,21.80
2017,07,18,14,55,21.80
2017,07,18,14,56,21.80
2017,07,18,14,57,21.80
2017,07,18,14,58,21.80
2017,07,18,14,59,21.90
2017,07,18,15,00,21.90
2017,07,18,15,01,21.90
2017,07,18,15,02,21.80
2017,07,18,15,03,21.80
2017,07,18,15,04,21.90
2017,07,18,15,05,21.90
2017,07,18,15,06,22.00
2017,07,18,15,07,22.20
2017,07,18,15,08,22.40
2017,07,18,15,09,22.50
2017,07,18,15,10,22.50
2017,07,18,15,11,22.60
2017,07,18,15,12,22.70
2017,07,18,15,13,22.90
2017,07,18,15,14,22.90
2017,07,18,15,15,22.90
2017,07,18,15,16,22.90
2017,07,18,15,17,22.80
2017,07,18,15,18,22.70
2017,07,18,15,19,22.60
2017,07,18,15,20,22.60
2017,07,18,15,21,22.70
2017,07,18,15,22,22.70
2017,07,18,15,23,22.80
2017,07,18,15,24,22.80
2017,07,18,15,25,22.80
2017,07,18,15,26,22.80
2017,07,18,15,27,22.90
2017,07,18,15,28,23.00
2017,07,18,15,29,23.20
2017,07,18,15,30,23.30
2017,07,18,15,31,23.40
2017,07,18,15,32,23.50
2017,07,18,15,33,23.60
2017,07,18,15,34,23.70
2017,07,18,15,35,23.80
2017,07,18,15,36,23.90
2017,07,18,15,37,24.00
2017,07,18,15,38,24.10
2017,07,18,15,39,24.10
2017,07,18,15,40,24.10
2017,07,18,15,41,24.10
2017,07,18,15,42,24.10
2017,07,18,15,43,24.00
2017,07,18,15,44,24.00
2017,07,18,15,45,24.00
2017,07,18,15,46,23.90
2017,07,18,15,47,23.90
2017,07,18,15,48,23.90
2017,07,18,15,49,23.90
2017,07,18,15,50,23.90
2017,07,18,15,51,23.90
2017,07,18,15,52,24.00
2017,07,18,15,53,24.00
2017,07,18,15,54,24.10
2017,07,18,15,55,24.10
2017,07,18,15,56,24.00
2017,07,18,15,57,24.00
2017,07,18,15,58,24.10
2017,07,18,15,59,24.10
2017,07,18,16,00,24.10
2017,07,18,16,01,24.00
2017,07,18,16,02,23.90
2017,07,18,16,03,23.80
2017,07,18,16,04,23.60
2017,07,18,16,05,23.50
2017,07,18,16,06,23.40
2017,07,18,16,07,23.40
2017,07,18,16,08,23.40
2017,07,18,16,09,23.20
2017,07,18,16,10,23.20
2017,07,18,16,11,23.10
2017,07,18,16,12,23.10
2017,07,18,16,13,23.20
2017,07,18,16,14,23.20
2017,07,18,16,15,23.20
2017,07,18,16,16,23.20
2017,07,18,16,17,23.10
2017,07,18,16,18,23.10
2017,07,18,16,19,23.10
2017,07,18,16,20,23.30
2017,07,18,16,21,23.40
2017,07,18,16,22,23.40
2017,07,18,16,23,23.40
2017,07,18,16,24,23.50
2017,07,18,16,25,23.60
2017,07,18,16,26,23.60
2017,07,18,16,27,23.70
2017,07,18,16,28,23.70
2017,07,18,16,29,23.70
2017,07,18,16,30,23.60
2017,07,18,16,31,23.50
2017,07,18,16,32,23.40
2017,07,18,16,33,23.30
2017,07,18,16,34,23.30
2017,07,18,16,35,23.20
2017,07,18,16,36,23.10
2017,07,18,16,37,23.00
2017,07,18,16,38,22.80
2017,07,18,16,39,22.70
2017,07,18,16,40,22.60
2017,07,18,16,41,22.50
2017,07,18,16,42,22.40
2017,07,18,16,43,22.40
2017,07,18,16,44,22.30
2017,07,18,16,45,22.20
2017,07,18,16,46,22.20
2017,07,18,16,47,22.20
2017,07,18,16,48,22.20
2017,07,18,16,49,22.20
2017,07,18,16,50,22.20
2017,07,18,16,51,22.20
2017,07,18,16,52,22.20
2017,07,18,16,53,22.30
2017,07,18,16,54,22.30
2017,07,18,16,55,22.20
2017,07,18,16,56,22.20
2017,07,18,16,57,22.30
2017,07,18,16,58,22.30
2017,07,18,16,59,22.40
2017,07,18,17,00,22.50
2017,07,18,17,01,22.50
2017,07,18,17,02,22.50
2017,07,18,17,03,22.60
2017,07,18,17,04,22.60
2017,07,18,17,05,22.70
2017,07,18,17,06,22.70
2017,07,18,17,07,22.70
2017,07,18,17,08,22.70
2017,07,18,17,09,22.70
2017,07,18,17,10,22.70
2017,07,18,17,11,22.70
2017,07,18,17,12,22.70
2017,07,18,17,13,22.70
2017,07,18,17,14,22.70
2017,07,18,17,15,22.70
2017,07,18,17,16,22.60
2017,07,18,17,17,22.60
2017,07,18,17,18,22.60
2017,07,18,17,19,22.60
2017,07,18,17,20,22.60
2017,07,18,17,21,22.60
2017,07,18,17,22,22.60
2017,07,18,17,23,22.60
2017,07,18,17,24,22.60
2017,07,18,17,25,22.60
2017,07,18,17,26,22.60
2017,07,18,17,27,22.70
2017,07,18,17,28,22.70
2017,07,18,17,29,22.60
2017,07,18,17,30,22.60
2017,07,18,17,31,22.60
2017,07,18,17,32,22.60
2017,07,18,17,33,22.60
2017,07,18,17,34,22.70
2017,07,18,17,35,22.70
2017,07,18,17,36,22.70
2017,07,18,17,37,22.80
2017,07,18,17,38,22.70
2017,07,18,17,39,22.70
2017,07,18,17,40,22.70
2017,07,18,17,41,22.70
2017,07,18,17,42,22.80
2017,07,18,17,43,22.80
2017,07,18,17,44,22.80
2017,07,18,17,45,22.80
2017,07,18,17,46,22.80
2017,07,18,17,47,22.80
2017,07,18,17,48,22.80
2017,07,18,17,49,22.90
2017,07,18,17,50,23.00
2017,07,18,17,51,23.10
2017,07,18,17,52,23.20
2017,07,18,17,53,23.20
2017,07,18,17,54,23.20
2017,07,18,17,55,23.20
2017,07,18,17,56,23.20
2017,07,18,17,57,23.10
2017,07,18,17,58,23.10
2017,07,18,17,59,23.10
2017,07,18,18,00,23.20
2017,07,18,18,01,23.30
2017,07,18,18,02,23.30
2017,07,18,18,03,23.30
2017,07,18,18,04,23.40
2017,07,18,18,05,23.50
2017,07,18,18,06,23.50
2017,07,18,18,07,23.60
2017,07,18,18,08,23.70
2017,07,18,18,09,23.80
2017,07,18,18,10,23.80
2017,07,18,18,11,23.90
2017,07,18,18,12,23.90
2017,07,18,18,13,23.90
2017,07,18,18,14,24.00
2017,07,18,18,15,24.00
2017,07,18,18,16,24.00
2017,07,18,18,17,24.00
2017,07,18,18,18,24.00
2017,07,18,18,19,24.00
2017,07,18,18,20,24.00
2017,07,18,18,21,23.90
2017,07,18,18,22,23.80
2017,07,18,18,23,23.80
2017,07,18,18,24,23.70
2017,07,18,18,25,23.70
2017,07,18,18,26,23.70
2017,07,18,18,27,23.70
2017,07,18,18,28,23.70
2017,07,18,18,29,23.70
2017,07,18,18,30,23.70
2017,07,18,18,31,23.70
2017,07,18,18,32,23.80
2017,07,18,18,33,23.80
2017,07,18,18,34,23.90
2017,07,18,18,35,23.90
2017,07,18,18,36,23.90
2017,07,18,18,37,23.90
2017,07,18,18,38,23.90
2017,07,18,18,39,23.90
2017,07,18,18,40,23.80
2017,07,18,18,41,23.80
2017,07,18,18,42,23.80
2017,07,18,18,43,23.70
2017,07,18,18,44,23.70
2017,07,18,18,45,23.70
2017,07,18,18,46,23.80
2017,07,18,18,47,23.80
2017,07,18,18,48,23.70
2017,07,18,18,49,23.70
2017,07,18,18,50,23.70
2017,07,18,18,51,23.60
2017,07,18,18,52,23.60
2017,07,18,18,53,23.70
2017,07,18,18,54,23.70
2017,07,18,18,55,23.70
2017,07,18,18,56,23.70
2017,07,18,18,57,23.70
2017,07,18,18,58,23.70
2017,07,18,18,59,23.70
2017,07,18,19,00,23.80
2017,07,18,19,01,23.80
2017,07,18,19,02,23.70
2017,07,18,19,03,23.70
2017,07,18,19,04,23.70
2017,07,18,19,05,23.70
2017,07,18,19,06,23.60
2017,07,18,19,07,23.60
2017,07,18,19,08,23.60
2017,07,18,19,09,23.60
2017,07,18,19,10,23.60
2017,07,18,19,11,23.50
2017,07,18,19,12,23.50
2017,07,18,19,13,23.50
2017,07,18,19,14,23.40
2017,07,18,19,15,23.40
2017,07,18,19,16,23.40
2017,07,18,19,17,23.40
2017,07,18,19,18,23.40
2017,07,18,19,19,23.40
2017,07,18,19,20,23.30
2017,07,18,19,21,23.30
2017,07,18,19,22,23.30
2017,07,18,19,23,23.30
2017,07,18,19,24,23.30
2017,07,18,19,25,23.30
2017,07,18,19,26,23.30
2017,07,18,19,27,23.40
2017,07,18,19,28,23.40
2017,07,18,19,29,23.50
2017,07,18,19,30,23.50
2017,07,18,19,31,23.60
2017,07,18,19,32,23.50
2017,07,18,19,33,23.50
2017,07,18,19,34,23.40
2017,07,18,19,35,23.40
2017,07,18,19,36,23.30
2017,07,18,19,37,23.30
2017,07,18,19,38,23.30
2017,07,18,19,39,23.30
2017,07,18,19,40,23.30
2017,07,18,19,41,23.30
2017,07,18,19,42,23.20
2017,07,18,19,43,23.20
2017,07,18,19,44,23.20
2017,07,18,19,45,23.20
2017,07,18,19,46,23.10
2017,07,18,19,47,23.10
2017,07,18,19,48,23.00
2017,07,18,19,49,23.00
2017,07,18,19,50,22.90
2017,07,18,19,51,22.90
2017,07,18,19,52,22.90
2017,07,18,19,53,22.80
2017,07,18,19,54,22.80
2017,07,18,19,55,22.70
2017,07,18,19,56,22.70
2017,07,18,19,57,22.70
2017,07,18,19,58,22.60
2017,07,18,19,59,22.60
2017,07,18,20,00,22.60
2017,07,18,20,01,22.50
2017,07,18,20,02,22.50
2017,07,18,20,03,22.40
2017,07,18,20,04,22.40
2017,07,18,20,05,22.40
2017,07,18,20,06,22.40
2017,07,18,20,07,22.40
2017,07,18,20,08,22.40
2017,07,18,20,09,22.30
2017,07,18,20,10,22.30
2017,07,18,20,11,22.30
2017,07,18,20,12,22.30
2017,07,18,20,13,22.20
2017,07,18,20,14,22.20
2017,07,18,20,15,22.10
2017,07,18,20,16,22.10
2017,07,18,20,17,22.00
2017,07,18,20,18,22.00
2017,07,18,20,19,21.90
2017,07,18,20,20,21.90
2017,07,18,20,21,21.90
2017,07,18,20,22,21.80
2017,07,18,20,23,21.80
2017,07,18,20,24,21.80
2017,07,18,20,25,21.80
2017,07,18,20,26,21.70
2017,07,18,20,27,21.70
2017,07,18,20,28,21.60
2017,07,18,20,29,21.60
2017,07,18,20,30,21.60
2017,07,18,20,31,21.50
2017,07,18,20,32,21.50
2017,07,18,20,33,21.40
2017,07,18,20,34,21.40
2017,07,18,20,35,21.30
2017,07,18,20,36,21.30
2017,07,18,20,37,21.30
2017,07,18,20,38,21.30
2017,07,18,20,39,21.20
2017,07,18,20,40,21.20
2017,07,18,20,41,21.20
2017,07,18,20,42,21.20
2017,07,18,20,43,21.20
2017,07,18,20,44,21.20
2017,07,18,20,45,21.20
2017,07,18,20,46,21.10
2017,07,18,20,47,21.10
2017,07,18,20,48,21.10
2017,07,18,20,49,21.00
2017,07,18,20,50,21.00
2017,07,18,20,51,20.90
2017,07,18,20,52,20.90
2017,07,18,20,53,20.90
2017,07,18,20,54,20.80
2017,07,18,20,55,20.80
2017,07,18,20,56,20.80
2017,07,18,20,57,20.80
2017,07,18,20,58,20.70
2017,07,18,20,59,20.70
2017,07,18,21,00,20.60
2017,07,18,21,01,20.60
2017,07,18,21,02,20.60
2017,07,18,21,03,20.60
2017,07,18,21,04,20.50
2017,07,18,21,05,20.50
2017,07,18,21,06,20.50
2017,07,18,21,07,20.40
2017,07,18,21,08,20.40
2017,07,18,21,09,20.40
2017,07,18,21,10,20.30
2017,07,18,21,11,20.30
2017,07,18,21,12,20.30
2017,07,18,21,13,20.30
2017,07,18,21,14,20.20
2017,07,18,21,15,20.20
2017,07,18,21,16,20.20
2017,07,18,21,17,20.20
2017,07,18,21,18,20.10
2017,07,18,21,19,20.10
2017,07,18,21,20,20.10
2017,07,18,21,21,20.10
2017,07,18,21,22,20.00
2017,07,18,21,23,20.00
2017,07,18,21,24,20.00
2017,07,18,21,25,20.00
2017,07,18,21,26,20.00
2017,07,18,21,27,20.00
2017,07,18,21,28,20.00
2017,07,18,21,29,20.00
2017,07,18,21,30,19.90
2017,07,18,21,31,19.90
2017,07,18,21,32,19.90
2017,07,18,21,33,19.90
2017,07,18,21,34,19.90
2017,07,18,21,35,19.90
2017,07,18,21,36,19.90
2017,07,18,21,37,19.90
2017,07,18,21,38,19.90
2017,07,18,21,39,19.80
2017,07,18,21,40,19.80
2017,07,18,21,41,19.80
2017,07,18,21,42,19.80
2017,07,18,21,43,19.80
2017,07,18,21,44,19.70
2017,07,18,21,45,19.70
2017,07,18,21,46,19.70
2017,07,18,21,47,19.60
2017,07,18,21,48,19.60
2017,07,18,21,49,19.50
2017,07,18,21,50,19.50
2017,07,18,21,51,19.40
2017,07,18,21,52,19.40
2017,07,18,21,53,19.30
2017,07,18,21,54,19.30
2017,07,18,21,55,19.30
2017,07,18,21,56,19.20
2017,07,18,21,57,19.20
2017,07,18,21,58,19.20
2017,07,18,21,59,19.20
2017,07,18,22,00,19.10
2017,07,18,22,01,19.10
2017,07,18,22,02,19.10
2017,07,18,22,03,19.00
2017,07,18,22,04,19.00
2017,07,18,22,05,18.90
2017,07,18,22,06,18.90